Time,TemperatureF,DewpointF,PressureIn,WindDirection,WindDirectionDegrees,WindSpeedMPH,WindSpeedGustMPH,Humidity,HourlyPrecipIn,Conditions,Clouds,dailyrainin,SoftwareType,DateUTC
2013-10-06 00:01:00,78.4,64.3,29.80,South,176,5.4,8.3,62,0.00,,SKC,0.00,VWS V13.01,2013-10-06 05:01:00,
2013-10-06 00:06:00,78.4,64.3,29.77,SSW,197,3.6,5.4,62,0.00,,SKC,0.00,VWS V13.01,2013-10-06 05:06:00,
2013-10-06 00:11:00,78.6,64.5,29.77,SSW,195,3.6,4.0,62,0.00,,SKC,0.00,VWS V13.01,2013-10-06 05:11:00,
2013-10-06 00:16:00,78.6,64.5,29.77,SE,143,2.7,3.6,62,0.00,,SKC,0.00,VWS V13.01,2013-10-06 05:16:00,
2013-10-06 00:21:00,78.6,64.5,29.77,SSE,148,2.2,4.9,62,0.00,,SKC,0.00,VWS V13.01,2013-10-06 05:21:00,
2013-10-06 00:26:00,78.6,65.4,29.77,SSE,159,3.1,5.8,64,0.00,,SKC,0.00,VWS V13.01,2013-10-06 05:26:00,
2013-10-06 00:31:00,78.6,66.3,29.77,ESE,116,5.4,5.4,66,0.00,,SKC,0.00,VWS V13.01,2013-10-06 05:31:00,
2013-10-06 00:36:00,78.6,66.3,29.77,South,178,6.3,6.3,66,0.00,,SKC,0.00,VWS V13.01,2013-10-06 05:36:00,
2013-10-06 00:41:00,78.6,65.4,29.77,ESE,104,4.9,5.4,64,0.00,,SKC,0.00,VWS V13.01,2013-10-06 05:41:00,
2013-10-06 00:45:00,78.8,65.6,29.77,South,182,8.7,8.7,64,0.00,,SKC,0.00,VWS V13.01,2013-10-06 05:45:00,
2013-10-06 00:50:00,78.8,66.5,29.77,SSE,152,8.7,8.7,66,0.00,,SKC,0.00,VWS V13.01,2013-10-06 05:50:00,
2013-10-06 00:55:00,78.6,68.8,29.77,SSE,152,5.4,5.4,72,0.00,,SKC,0.00,VWS V13.01,2013-10-06 05:55:00,
2013-10-06 01:00:00,78.3,69.3,29.77,South,178,7.2,8.7,74,0.00,,SKC,0.00,VWS V13.01,2013-10-06 06:00:00,
2013-10-06 01:05:00,78.1,69.1,29.77,SSE,159,4.0,8.1,74,0.00,,SKC,0.00,VWS V13.01,2013-10-06 06:05:00,
2013-10-06 01:10:00,77.9,69.7,29.77,SSW,192,9.6,10.5,76,0.00,,SKC,0.00,VWS V13.01,2013-10-06 06:10:00,
2013-10-06 01:15:00,77.7,68.0,29.77,South,186,6.3,8.7,72,0.00,,SKC,0.00,VWS V13.01,2013-10-06 06:15:00,
2013-10-06 01:20:00,77.5,67.8,29.77,SSE,148,8.3,10.1,72,0.00,,SKC,0.00,VWS V13.01,2013-10-06 06:20:00,
2013-10-06 01:25:00,77.4,69.2,29.77,South,175,5.8,5.8,76,0.00,,SKC,0.00,VWS V13.01,2013-10-06 06:25:00,
2013-10-06 01:30:00,77.0,69.6,29.77,SSE,157,4.9,8.7,78,0.00,,SKC,0.00,VWS V13.01,2013-10-06 06:30:00,
2013-10-06 01:35:00,76.8,70.9,29.77,South,173,2.7,4.0,82,0.00,,SKC,0.00,VWS V13.01,2013-10-06 06:35:00,
2013-10-06 01:40:00,76.8,71.6,29.77,SW,226,5.8,6.3,84,0.00,,SKC,0.00,VWS V13.01,2013-10-06 06:40:00,
2013-10-06 01:45:00,76.6,71.4,29.77,SSW,206,2.7,3.1,84,0.04,,SKC,0.04,VWS V13.01,2013-10-06 06:45:00,
2013-10-06 01:50:00,76.5,71.3,29.77,South,174,4.0,4.0,84,0.08,,SKC,0.08,VWS V13.01,2013-10-06 06:50:00,
2013-10-06 01:55:00,76.5,72.0,29.77,WSW,245,3.1,4.0,86,0.12,,SKC,0.12,VWS V13.01,2013-10-06 06:55:00,
2013-10-06 02:00:00,76.5,72.7,29.77,WSW,241,3.1,3.6,88,0.12,,SKC,0.12,VWS V13.01,2013-10-06 07:00:00,
2013-10-06 02:05:00,76.6,73.5,29.74,South,177,0.0,0.0,90,0.12,,SKC,0.12,VWS V13.01,2013-10-06 07:05:00,
2013-10-06 02:10:00,76.8,74.3,29.74,South,175,0.0,2.2,92,0.12,,SKC,0.12,VWS V13.01,2013-10-06 07:10:00,
2013-10-06 02:15:00,76.8,75.0,29.74,SW,231,3.6,4.5,94,0.12,,SKC,0.12,VWS V13.01,2013-10-06 07:15:00,
2013-10-06 02:20:00,77.0,75.1,29.74,SSE,160,0.0,0.0,94,0.12,,SKC,0.12,VWS V13.01,2013-10-06 07:20:00,
2013-10-06 02:25:00,77.2,76.6,29.74,SSE,164,4.0,7.6,98,0.12,,SKC,0.12,VWS V13.01,2013-10-06 07:25:00,
2013-10-06 02:30:00,77.2,76.6,29.74,SSW,197,3.6,3.6,98,0.12,,SKC,0.12,VWS V13.01,2013-10-06 07:30:00,
2013-10-06 02:35:00,77.2,77.2,29.74,SE,143,2.7,2.7,100,0.12,,SKC,0.12,VWS V13.01,2013-10-06 07:35:00,
2013-10-06 02:40:00,77.4,77.4,29.74,West,266,3.1,3.1,100,0.12,,SKC,0.12,VWS V13.01,2013-10-06 07:40:00,
2013-10-06 02:45:00,77.4,77.4,29.74,SSW,210,0.0,2.2,100,0.08,,SKC,0.12,VWS V13.01,2013-10-06 07:45:00,
2013-10-06 02:50:00,77.4,77.4,29.74,SSW,200,2.7,2.7,100,0.04,,SKC,0.12,VWS V13.01,2013-10-06 07:50:00,
2013-10-06 02:55:00,77.4,77.4,29.74,South,174,5.8,5.8,100,0.00,,SKC,0.12,VWS V13.01,2013-10-06 07:55:00,
2013-10-06 03:00:00,77.4,77.4,29.74,South,180,5.8,8.7,100,0.00,,SKC,0.12,VWS V13.01,2013-10-06 08:00:00,
2013-10-06 03:05:00,77.4,76.1,29.74,SSW,198,5.4,8.3,96,0.00,,SKC,0.12,VWS V13.01,2013-10-06 08:05:00,
2013-10-06 03:10:00,76.8,72.3,29.74,South,182,10.5,10.5,86,0.00,,SKC,0.12,VWS V13.01,2013-10-06 08:10:00,
2013-10-06 03:15:00,76.5,72.0,29.74,SSW,207,6.3,6.3,86,0.00,,SKC,0.12,VWS V13.01,2013-10-06 08:15:00,
2013-10-06 03:20:00,75.6,71.1,29.71,SSW,193,2.7,2.7,86,0.00,,SKC,0.12,VWS V13.01,2013-10-06 08:20:00,
2013-10-06 03:25:00,76.3,72.5,29.71,South,170,0.0,0.0,88,0.00,,SKC,0.12,VWS V13.01,2013-10-06 08:25:00,
2013-10-06 03:30:00,76.3,72.5,29.71,South,170,0.0,0.0,88,0.00,,SKC,0.12,VWS V13.01,2013-10-06 08:30:00,
2013-10-06 03:35:00,76.1,72.3,29.71,South,170,0.0,0.0,88,0.00,,SKC,0.12,VWS V13.01,2013-10-06 08:35:00,
2013-10-06 03:40:00,75.9,72.8,29.71,WSW,256,0.0,0.0,90,0.00,,SKC,0.12,VWS V13.01,2013-10-06 08:40:00,
2013-10-06 03:45:00,76.1,74.2,29.71,WSW,244,0.0,0.0,94,0.00,,SKC,0.12,VWS V13.01,2013-10-06 08:45:00,
2013-10-06 03:50:00,76.3,76.3,29.71,WSW,238,0.0,0.0,100,0.00,,SKC,0.12,VWS V13.01,2013-10-06 08:50:00,
2013-10-06 03:55:00,76.6,76.7,29.71,South,169,3.6,3.6,100,0.00,,SKC,0.12,VWS V13.01,2013-10-06 08:55:00,
2013-10-06 04:00:00,77.0,77.0,29.71,SSE,165,5.4,5.4,100,0.00,,SKC,0.12,VWS V13.01,2013-10-06 09:00:00,
2013-10-06 04:05:00,77.0,77.0,29.71,South,169,4.9,4.9,100,0.00,,SKC,0.12,VWS V13.01,2013-10-06 09:05:00,
2013-10-06 04:09:00,77.0,76.4,29.71,SSE,161,5.4,7.2,98,0.04,,SKC,0.16,VWS V13.01,2013-10-06 09:09:00,
2013-10-06 04:14:00,77.0,75.8,29.71,SW,226,4.5,8.1,96,0.04,,SKC,0.16,VWS V13.01,2013-10-06 09:14:00,
2013-10-06 04:19:00,76.6,74.8,29.71,South,169,4.0,6.3,94,0.04,,SKC,0.16,VWS V13.01,2013-10-06 09:19:00,
2013-10-06 04:24:00,76.5,75.9,29.71,SW,222,4.5,5.4,98,0.04,,SKC,0.16,VWS V13.01,2013-10-06 09:24:00,
2013-10-06 04:29:00,76.5,76.5,29.71,SSE,153,5.4,5.4,100,0.04,,SKC,0.16,VWS V13.01,2013-10-06 09:29:00,
2013-10-06 04:34:00,76.5,76.5,29.71,SSW,212,2.2,5.4,100,0.04,,SKC,0.16,VWS V13.01,2013-10-06 09:34:00,
2013-10-06 04:39:00,76.5,76.5,29.71,South,182,6.3,8.7,100,0.04,,SKC,0.16,VWS V13.01,2013-10-06 09:39:00,
2013-10-06 04:44:00,76.3,76.3,29.71,SSW,192,6.3,8.3,100,0.04,,SKC,0.16,VWS V13.01,2013-10-06 09:44:00,
2013-10-06 04:49:00,76.1,76.1,29.71,South,181,3.6,5.4,100,0.04,,SKC,0.16,VWS V13.01,2013-10-06 09:49:00,
2013-10-06 04:54:00,76.1,75.5,29.74,South,186,8.3,10.1,98,0.04,,SKC,0.16,VWS V13.01,2013-10-06 09:54:00,
2013-10-06 04:59:00,76.1,74.9,29.74,SSE,168,3.1,6.3,96,0.04,,SKC,0.16,VWS V13.01,2013-10-06 09:59:00,
2013-10-06 05:04:00,76.3,75.7,29.74,SSE,166,5.8,5.8,98,0.04,,SKC,0.16,VWS V13.01,2013-10-06 10:04:00,
2013-10-06 05:09:00,76.3,75.7,29.74,SE,145,3.1,3.1,98,0.00,,SKC,0.16,VWS V13.01,2013-10-06 10:09:00,
2013-10-06 05:13:00,76.3,74.4,29.74,SSE,165,3.1,5.8,94,0.00,,SKC,0.16,VWS V13.01,2013-10-06 10:13:00,
2013-10-06 05:18:00,76.3,74.4,29.74,East,87,0.0,0.0,94,0.00,,SKC,0.16,VWS V13.01,2013-10-06 10:18:00,
2013-10-06 05:23:00,76.5,75.2,29.74,South,172,3.1,3.1,96,0.00,,SKC,0.16,VWS V13.01,2013-10-06 10:23:00,
2013-10-06 05:28:00,76.6,75.4,29.74,SSW,200,4.0,5.8,96,0.00,,SKC,0.16,VWS V13.01,2013-10-06 10:28:00,
2013-10-06 05:33:00,76.6,76.0,29.74,SSW,210,0.0,3.6,98,0.00,,SKC,0.16,VWS V13.01,2013-10-06 10:33:00,
2013-10-06 05:38:00,76.8,76.8,29.74,WSW,245,4.9,4.9,100,0.00,,SKC,0.16,VWS V13.01,2013-10-06 10:38:00,
2013-10-06 05:43:00,76.8,76.8,29.74,SSE,157,4.0,8.1,100,0.00,,SKC,0.16,VWS V13.01,2013-10-06 10:43:00,
2013-10-06 05:48:00,76.6,76.7,29.74,SSW,203,3.6,4.9,100,0.00,,SKC,0.16,VWS V13.01,2013-10-06 10:48:00,
2013-10-06 05:53:00,76.6,76.7,29.71,SSE,161,0.0,2.2,100,0.00,,SKC,0.16,VWS V13.01,2013-10-06 10:53:00,
2013-10-06 05:58:00,76.6,76.0,29.71,South,175,3.1,3.6,98,0.00,,SKC,0.16,VWS V13.01,2013-10-06 10:58:00,
2013-10-06 06:03:00,76.6,76.7,29.71,South,170,5.8,6.7,100,0.00,,SKC,0.16,VWS V13.01,2013-10-06 11:03:00,
2013-10-06 06:08:00,76.8,76.8,29.71,SSE,159,4.0,4.9,100,0.00,,SKC,0.16,VWS V13.01,2013-10-06 11:08:00,
2013-10-06 06:13:00,76.8,76.8,29.71,SSE,167,4.0,4.0,100,0.00,,SKC,0.16,VWS V13.01,2013-10-06 11:13:00,
2013-10-06 06:18:00,76.8,76.8,29.71,South,184,2.7,2.7,100,0.00,,SKC,0.16,VWS V13.01,2013-10-06 11:18:00,
2013-10-06 06:23:00,76.8,76.8,29.71,South,175,0.0,2.7,100,0.00,,SKC,0.16,VWS V13.01,2013-10-06 11:23:00,
2013-10-06 06:28:00,76.8,76.8,29.71,South,172,0.0,0.0,100,0.00,,SKC,0.16,VWS V13.01,2013-10-06 11:28:00,
2013-10-06 06:33:00,76.8,76.8,29.71,South,170,5.4,5.4,100,0.04,,SKC,0.20,VWS V13.01,2013-10-06 11:33:00,
2013-10-06 06:38:00,76.6,76.7,29.71,South,185,4.5,5.4,100,0.04,,SKC,0.20,VWS V13.01,2013-10-06 11:38:00,
2013-10-06 06:43:00,76.6,76.7,29.71,South,178,2.2,2.2,100,0.04,,SKC,0.20,VWS V13.01,2013-10-06 11:43:00,
2013-10-06 06:48:00,76.6,76.7,29.71,South,178,0.0,0.0,100,0.04,,SKC,0.20,VWS V13.01,2013-10-06 11:48:00,
2013-10-06 06:53:00,76.6,76.7,29.71,South,178,3.6,3.6,100,0.04,,SKC,0.20,VWS V13.01,2013-10-06 11:53:00,
2013-10-06 06:58:00,76.5,76.5,29.71,SSE,160,2.7,2.7,100,0.04,,SKC,0.20,VWS V13.01,2013-10-06 11:58:00,
2013-10-06 07:03:00,76.6,76.7,29.71,SSW,199,4.0,4.0,100,0.04,,SKC,0.20,VWS V13.01,2013-10-06 12:03:00,
2013-10-06 07:08:00,76.5,76.5,29.71,SSE,158,2.7,5.4,100,0.04,,SKC,0.20,VWS V13.01,2013-10-06 12:08:00,
2013-10-06 07:13:00,76.5,76.5,29.71,South,184,3.6,3.6,100,0.04,,SKC,0.20,VWS V13.01,2013-10-06 12:13:00,
2013-10-06 07:18:00,76.5,76.5,29.71,South,190,0.0,3.6,100,0.04,,SKC,0.20,VWS V13.01,2013-10-06 12:18:00,
2013-10-06 07:23:00,76.5,76.5,29.74,SW,229,4.0,5.8,100,0.04,,SKC,0.20,VWS V13.01,2013-10-06 12:23:00,
2013-10-06 07:28:00,76.5,76.5,29.74,South,182,3.6,7.6,100,0.04,,SKC,0.20,VWS V13.01,2013-10-06 12:28:00,
2013-10-06 07:33:00,76.5,76.5,29.74,WSW,251,5.4,5.8,100,0.00,,SKC,0.20,VWS V13.01,2013-10-06 12:33:00,
2013-10-06 07:38:00,76.3,76.3,29.71,South,187,4.0,4.0,100,0.00,,SKC,0.20,VWS V13.01,2013-10-06 12:38:00,
2013-10-06 07:43:00,75.9,75.9,29.71,SSE,167,4.5,4.9,100,0.00,,SKC,0.20,VWS V13.01,2013-10-06 12:43:00,
2013-10-06 07:48:00,75.9,75.9,29.71,SSW,209,3.6,3.6,100,0.00,,SKC,0.20,VWS V13.01,2013-10-06 12:48:00,
2013-10-06 07:53:00,75.7,75.8,29.71,SSE,166,0.0,2.7,100,0.00,,SKC,0.20,VWS V13.01,2013-10-06 12:53:00,
2013-10-06 07:58:00,75.7,75.8,29.71,South,175,0.0,0.0,100,0.00,,SKC,0.20,VWS V13.01,2013-10-06 12:58:00,
2013-10-06 08:03:00,75.7,75.8,29.71,South,175,0.0,0.0,100,0.00,,SKC,0.20,VWS V13.01,2013-10-06 13:03:00,
2013-10-06 08:08:00,75.7,75.8,29.71,South,175,0.0,0.0,100,0.00,,SKC,0.20,VWS V13.01,2013-10-06 13:08:00,
2013-10-06 08:13:00,75.7,75.8,29.71,South,175,0.0,0.0,100,0.00,,SKC,0.20,VWS V13.01,2013-10-06 13:13:00,
2013-10-06 08:18:00,75.7,75.8,29.71,South,175,0.0,0.0,100,0.00,,SKC,0.20,VWS V13.01,2013-10-06 13:18:00,
2013-10-06 08:23:00,75.7,75.8,29.71,South,175,0.0,0.0,100,0.00,,SKC,0.20,VWS V13.01,2013-10-06 13:23:00,
2013-10-06 08:28:00,75.7,75.8,29.71,South,175,0.0,0.0,100,0.00,,SKC,0.20,VWS V13.01,2013-10-06 13:28:00,
2013-10-06 08:33:00,75.7,75.8,29.71,South,175,0.0,0.0,100,0.00,,SKC,0.20,VWS V13.01,2013-10-06 13:33:00,
2013-10-06 08:38:00,75.7,75.8,29.74,South,175,0.0,0.0,100,0.00,,SKC,0.20,VWS V13.01,2013-10-06 13:38:00,
2013-10-06 08:43:00,75.9,75.9,29.74,South,175,0.0,0.0,100,0.00,,SKC,0.20,VWS V13.01,2013-10-06 13:43:00,
2013-10-06 08:48:00,75.9,75.9,29.74,South,175,0.0,0.0,100,0.00,,SKC,0.20,VWS V13.01,2013-10-06 13:48:00,
2013-10-06 08:53:00,76.1,76.1,29.74,ESE,112,0.0,0.0,100,0.00,,SKC,0.20,VWS V13.01,2013-10-06 13:53:00,
2013-10-06 08:58:00,76.5,76.5,29.74,South,181,0.0,0.0,100,0.00,,SKC,0.20,VWS V13.01,2013-10-06 13:58:00,
2013-10-06 09:03:00,76.6,76.7,29.74,South,182,0.0,0.0,100,0.08,,SKC,0.28,VWS V13.01,2013-10-06 14:03:00,
2013-10-06 09:08:00,77.0,77.0,29.74,South,183,0.0,0.0,100,0.12,,SKC,0.31,VWS V13.01,2013-10-06 14:08:00,
2013-10-06 09:13:00,77.2,77.2,29.74,NNW,329,0.0,0.0,100,0.20,,SKC,0.43,VWS V13.01,2013-10-06 14:13:00,
2013-10-06 09:18:00,77.0,77.0,29.74,NW,322,3.1,3.1,100,0.39,,SKC,0.59,VWS V13.01,2013-10-06 14:18:00,
2013-10-06 09:23:00,76.8,76.8,29.74,NW,316,0.0,0.0,100,0.55,,SKC,0.79,VWS V13.01,2013-10-06 14:23:00,
2013-10-06 09:28:00,76.6,76.7,29.74,West,272,0.0,0.0,100,0.67,,SKC,0.91,VWS V13.01,2013-10-06 14:28:00,
2013-10-06 09:33:00,76.5,76.5,29.74,ENE,72,0.0,0.0,100,0.83,,SKC,1.02,VWS V13.01,2013-10-06 14:33:00,
2013-10-06 09:38:00,76.5,76.5,29.74,ENE,73,0.0,0.0,100,0.87,,SKC,1.10,VWS V13.01,2013-10-06 14:38:00,
2013-10-06 09:43:00,76.3,76.3,29.74,ENE,72,0.0,0.0,100,0.91,,SKC,1.10,VWS V13.01,2013-10-06 14:43:00,
2013-10-06 09:48:00,76.5,76.5,29.74,ENE,72,0.0,0.0,100,0.91,,SKC,1.10,VWS V13.01,2013-10-06 14:48:00,
2013-10-06 09:53:00,76.8,76.8,29.74,ENE,72,0.0,0.0,100,0.91,,SKC,1.10,VWS V13.01,2013-10-06 14:53:00,
2013-10-06 09:58:00,76.8,76.8,29.74,ESE,122,0.0,0.0,100,0.91,,SKC,1.10,VWS V13.01,2013-10-06 14:58:00,
2013-10-06 10:03:00,76.8,76.8,29.74,East,79,0.0,0.0,100,0.83,,SKC,1.10,VWS V13.01,2013-10-06 15:03:00,
2013-10-06 10:08:00,76.8,76.8,29.74,East,89,0.0,0.0,100,0.83,,SKC,1.10,VWS V13.01,2013-10-06 15:08:00,
2013-10-06 10:13:00,76.8,76.8,29.74,ESE,116,0.0,0.0,100,0.71,,SKC,1.10,VWS V13.01,2013-10-06 15:13:00,
2013-10-06 10:18:00,76.8,76.8,29.74,ESE,116,0.0,0.0,100,0.51,,SKC,1.10,VWS V13.01,2013-10-06 15:18:00,
2013-10-06 10:23:00,76.6,76.7,29.74,ESE,116,0.0,0.0,100,0.39,,SKC,1.10,VWS V13.01,2013-10-06 15:23:00,
2013-10-06 10:28:00,76.5,76.5,29.74,ESE,116,0.0,0.0,100,0.24,,SKC,1.10,VWS V13.01,2013-10-06 15:28:00,
2013-10-06 10:33:00,76.6,76.7,29.74,ESE,116,0.0,0.0,100,0.08,,SKC,1.10,VWS V13.01,2013-10-06 15:33:00,
2013-10-06 10:38:00,76.6,76.7,29.74,ESE,115,0.0,0.0,100,0.04,,SKC,1.10,VWS V13.01,2013-10-06 15:38:00,
2013-10-06 10:43:00,77.0,77.0,29.74,ESE,116,0.0,0.0,100,0.00,,SKC,1.10,VWS V13.01,2013-10-06 15:43:00,
2013-10-06 10:48:00,77.2,77.2,29.74,ENE,68,0.0,0.0,100,0.00,,SKC,1.10,VWS V13.01,2013-10-06 15:48:00,
2013-10-06 10:53:00,77.2,77.2,29.74,East,96,0.0,0.0,100,0.00,,SKC,1.10,VWS V13.01,2013-10-06 15:53:00,
2013-10-06 10:58:00,77.4,77.4,29.74,SE,130,0.0,0.0,100,0.00,,SKC,1.10,VWS V13.01,2013-10-06 15:58:00,
2013-10-06 11:03:00,77.7,77.7,29.74,SE,129,0.0,0.0,100,0.00,,SKC,1.10,VWS V13.01,2013-10-06 16:03:00,
2013-10-06 11:08:00,77.9,77.9,29.74,ESE,119,0.0,0.0,100,0.00,,SKC,1.10,VWS V13.01,2013-10-06 16:08:00,
2013-10-06 11:13:00,78.3,78.3,29.74,ESE,105,0.0,0.0,100,0.00,,SKC,1.10,VWS V13.01,2013-10-06 16:13:00,
2013-10-06 11:18:00,78.4,78.4,29.74,South,178,0.0,0.0,100,0.00,,SKC,1.10,VWS V13.01,2013-10-06 16:18:00,
2013-10-06 11:23:00,79.0,79.0,29.74,SSW,203,0.0,0.0,100,0.00,,SKC,1.10,VWS V13.01,2013-10-06 16:23:00,
2013-10-06 11:28:00,79.5,79.5,29.74,South,177,0.0,0.0,100,0.00,,SKC,1.10,VWS V13.01,2013-10-06 16:28:00,
2013-10-06 11:33:00,80.8,80.8,29.74,South,183,0.0,0.0,100,0.00,,SKC,1.10,VWS V13.01,2013-10-06 16:33:00,
2013-10-06 11:38:00,81.5,81.5,29.74,SSE,150,0.0,0.0,100,0.00,,SKC,1.10,VWS V13.01,2013-10-06 16:38:00,
2013-10-06 11:43:00,81.5,76.9,29.74,SE,129,0.0,2.7,86,0.00,,SKC,1.10,VWS V13.01,2013-10-06 16:43:00,
2013-10-06 11:48:00,81.5,74.7,29.74,ESE,103,0.0,0.0,80,0.00,,SKC,1.10,VWS V13.01,2013-10-06 16:48:00,
2013-10-06 11:53:00,81.7,74.9,29.74,SE,134,0.0,0.0,80,0.00,,SKC,1.10,VWS V13.01,2013-10-06 16:53:00,
2013-10-06 11:58:00,81.7,73.4,29.74,SSW,198,7.6,7.6,76,0.00,,SKC,1.10,VWS V13.01,2013-10-06 16:58:00,
2013-10-06 12:03:00,81.7,72.6,29.74,South,171,0.0,4.9,74,0.00,,SKC,1.10,VWS V13.01,2013-10-06 17:03:00,
2013-10-06 12:08:00,81.9,71.9,29.74,ESE,112,0.0,0.0,72,0.00,,SKC,1.10,VWS V13.01,2013-10-06 17:08:00,
2013-10-06 12:13:00,81.9,71.1,29.74,South,186,0.0,0.0,70,0.00,,SKC,1.10,VWS V13.01,2013-10-06 17:13:00,
2013-10-06 12:18:00,81.9,70.3,29.74,South,177,0.0,0.0,68,0.00,,SKC,1.10,VWS V13.01,2013-10-06 17:18:00,
2013-10-06 12:23:00,81.9,69.4,29.74,ESE,106,0.0,0.0,66,0.00,,SKC,1.10,VWS V13.01,2013-10-06 17:23:00,
2013-10-06 12:28:00,81.3,68.0,29.74,ESE,108,3.1,3.6,64,0.00,,SKC,1.10,VWS V13.01,2013-10-06 17:28:00,
2013-10-06 12:33:00,81.0,66.7,29.74,East,80,3.6,3.6,62,0.00,,SKC,1.10,VWS V13.01,2013-10-06 17:33:00,
2013-10-06 12:38:00,80.8,67.5,29.71,SSE,155,3.1,3.6,64,0.00,,SKC,1.10,VWS V13.01,2013-10-06 17:38:00,
2013-10-06 12:42:00,80.8,67.5,29.71,South,180,0.0,2.7,64,0.00,,SKC,1.10,VWS V13.01,2013-10-06 17:42:00,
2013-10-06 12:47:00,81.0,67.7,29.71,ESE,111,0.0,2.7,64,0.00,,SKC,1.10,VWS V13.01,2013-10-06 17:47:00,
2013-10-06 12:52:00,81.5,68.2,29.71,South,179,2.2,3.6,64,0.00,,SKC,1.10,VWS V13.01,2013-10-06 17:52:00,
2013-10-06 12:57:00,82.4,68.1,29.71,South,180,3.6,4.0,62,0.00,,SKC,1.10,VWS V13.01,2013-10-06 17:57:00,
2013-10-06 13:02:00,82.8,67.5,29.71,SE,132,0.0,2.2,60,0.00,,SKC,1.10,VWS V13.01,2013-10-06 18:02:00,
2013-10-06 13:07:00,82.9,63.5,29.68,ESE,113,2.7,2.7,52,0.00,,SKC,1.10,VWS V13.01,2013-10-06 18:07:00,
2013-10-06 13:12:00,83.5,64.0,29.68,ENE,57,2.7,3.1,52,0.00,,SKC,1.10,VWS V13.01,2013-10-06 18:12:00,
2013-10-06 13:17:00,83.8,60.9,29.68,SSW,199,0.0,3.1,46,0.00,,SKC,1.10,VWS V13.01,2013-10-06 18:17:00,
2013-10-06 13:22:00,84.0,62.2,29.68,NE,50,3.1,3.1,48,0.00,,SKC,1.10,VWS V13.01,2013-10-06 18:22:00,
2013-10-06 13:27:00,84.7,61.7,29.68,ENE,71,3.1,3.1,46,0.00,,SKC,1.10,VWS V13.01,2013-10-06 18:27:00,
2013-10-06 13:32:00,85.3,62.2,29.68,West,272,2.7,2.7,46,0.00,,SKC,1.10,VWS V13.01,2013-10-06 18:32:00,
2013-10-06 13:37:00,86.0,58.9,29.68,East,88,2.7,3.1,40,0.00,,SKC,1.10,VWS V13.01,2013-10-06 18:37:00,
2013-10-06 13:42:00,86.0,60.3,29.68,ESE,123,2.2,2.7,42,0.00,,SKC,1.10,VWS V13.01,2013-10-06 18:42:00,
2013-10-06 13:47:00,85.8,60.1,29.68,SSE,166,0.0,3.6,42,0.00,,SKC,1.10,VWS V13.01,2013-10-06 18:47:00,
2013-10-06 13:52:00,86.4,60.6,29.68,South,191,4.0,4.0,42,0.00,,SKC,1.10,VWS V13.01,2013-10-06 18:52:00,
2013-10-06 13:57:00,87.3,62.7,29.68,South,172,8.3,8.3,44,0.00,,SKC,1.10,VWS V13.01,2013-10-06 18:57:00,
2013-10-06 14:03:00,87.4,58.7,29.68,SE,133,4.0,4.0,38,0.00,,SKC,1.10,VWS V13.01,2013-10-06 19:03:00,
2013-10-06 14:08:00,86.5,57.9,29.68,ESE,113,0.0,4.0,38,0.00,,SKC,1.10,VWS V13.01,2013-10-06 19:08:00,
2013-10-06 14:13:00,86.0,58.9,29.68,SE,135,4.0,4.0,40,0.00,,SKC,1.10,VWS V13.01,2013-10-06 19:13:00,
2013-10-06 14:18:00,86.2,60.4,29.68,ESE,105,4.9,4.9,42,0.00,,SKC,1.10,VWS V13.01,2013-10-06 19:18:00,
2013-10-06 14:23:00,85.8,60.1,29.65,South,176,3.6,3.6,42,0.00,,SKC,1.10,VWS V13.01,2013-10-06 19:23:00,
2013-10-06 14:28:00,85.5,59.8,29.65,South,176,3.6,3.6,42,0.00,,SKC,1.10,VWS V13.01,2013-10-06 19:28:00,
2013-10-06 14:33:00,85.5,59.8,29.65,South,169,2.7,3.1,42,0.00,,SKC,1.10,VWS V13.01,2013-10-06 19:33:00,
2013-10-06 14:38:00,86.2,60.4,29.65,SSW,201,4.0,5.8,42,0.00,,SKC,1.10,VWS V13.01,2013-10-06 19:38:00,
2013-10-06 14:43:00,86.9,61.1,29.65,East,90,2.2,4.9,42,0.00,,SKC,1.10,VWS V13.01,2013-10-06 19:43:00,
2013-10-06 14:48:00,86.7,59.5,29.65,SE,129,4.9,4.9,40,0.00,,SKC,1.10,VWS V13.01,2013-10-06 19:48:00,
2013-10-06 14:53:00,86.7,59.5,29.65,SW,227,0.0,0.0,40,0.00,,SKC,1.10,VWS V13.01,2013-10-06 19:53:00,
2013-10-06 14:58:00,87.4,60.2,29.65,South,174,3.1,3.6,40,0.00,,SKC,1.10,VWS V13.01,2013-10-06 19:58:00,
2013-10-06 15:03:00,88.3,59.5,29.65,SSW,206,0.0,5.4,38,0.00,,SKC,1.10,VWS V13.01,2013-10-06 20:03:00,
2013-10-06 15:08:00,88.3,56.4,29.65,SSE,148,3.6,4.0,34,0.00,,SKC,1.10,VWS V13.01,2013-10-06 20:08:00,
2013-10-06 15:13:00,88.0,57.7,29.65,South,180,6.3,6.3,36,0.00,,SKC,1.10,VWS V13.01,2013-10-06 20:13:00,
2013-10-06 15:18:00,87.6,58.9,29.65,South,173,0.0,3.6,38,0.00,,SKC,1.10,VWS V13.01,2013-10-06 20:18:00,
2013-10-06 15:23:00,87.1,56.9,29.65,ESE,117,4.9,4.9,36,0.00,,SKC,1.10,VWS V13.01,2013-10-06 20:23:00,
2013-10-06 15:28:00,85.6,58.6,29.65,SE,125,6.3,6.3,40,0.00,,SKC,1.10,VWS V13.01,2013-10-06 20:28:00,
2013-10-06 15:33:00,84.4,58.8,29.65,SE,128,4.0,4.9,42,0.00,,SKC,1.10,VWS V13.01,2013-10-06 20:33:00,
2013-10-06 15:38:00,83.1,60.2,29.65,South,174,2.2,4.0,46,0.04,,SKC,1.14,VWS V13.01,2013-10-06 20:38:00,
2013-10-06 15:43:00,82.2,65.0,29.65,North,350,0.0,3.1,56,0.04,,SKC,1.14,VWS V13.01,2013-10-06 20:43:00,
2013-10-06 15:48:00,81.3,66.1,29.65,NNE,14,0.0,0.0,60,0.04,,SKC,1.14,VWS V13.01,2013-10-06 20:48:00,
2013-10-06 15:53:00,81.1,66.9,29.65,South,186,2.7,3.6,62,0.04,,SKC,1.14,VWS V13.01,2013-10-06 20:53:00,
2013-10-06 15:58:00,81.0,66.7,29.65,South,186,0.0,0.0,62,0.04,,SKC,1.14,VWS V13.01,2013-10-06 20:58:00,
2013-10-06 16:03:00,80.8,67.5,29.65,South,186,0.0,0.0,64,0.08,,SKC,1.18,VWS V13.01,2013-10-06 21:03:00,
2013-10-06 16:08:00,80.8,68.4,29.65,SE,134,2.2,3.1,66,0.20,,SKC,1.30,VWS V13.01,2013-10-06 21:08:00,
2013-10-06 16:13:00,81.0,69.4,29.65,SSE,168,4.0,4.0,68,0.20,,SKC,1.30,VWS V13.01,2013-10-06 21:13:00,
2013-10-06 16:18:00,81.3,69.8,29.65,NNW,335,0.0,0.0,68,0.20,,SKC,1.30,VWS V13.01,2013-10-06 21:18:00,
2013-10-06 16:23:00,81.1,69.6,29.65,NNW,335,0.0,0.0,68,0.20,,SKC,1.30,VWS V13.01,2013-10-06 21:23:00,
2013-10-06 16:28:00,81.1,70.4,29.65,NNW,335,0.0,0.0,70,0.20,,SKC,1.30,VWS V13.01,2013-10-06 21:28:00,
2013-10-06 16:33:00,81.0,70.3,29.65,SSW,197,0.0,0.0,70,0.20,,SKC,1.30,VWS V13.01,2013-10-06 21:33:00,
2013-10-06 16:38:00,81.0,70.3,29.65,SSW,197,0.0,0.0,70,0.16,,SKC,1.30,VWS V13.01,2013-10-06 21:38:00,
2013-10-06 16:43:00,81.0,71.1,29.65,SSW,197,0.0,0.0,72,0.16,,SKC,1.30,VWS V13.01,2013-10-06 21:43:00,
2013-10-06 16:48:00,80.8,70.9,29.65,SSW,197,0.0,0.0,72,0.16,,SKC,1.30,VWS V13.01,2013-10-06 21:48:00,
2013-10-06 16:53:00,81.0,71.1,29.65,SSW,197,0.0,0.0,72,0.16,,SKC,1.30,VWS V13.01,2013-10-06 21:53:00,
2013-10-06 16:58:00,81.0,71.9,29.65,SSW,197,0.0,0.0,74,0.16,,SKC,1.30,VWS V13.01,2013-10-06 21:58:00,
2013-10-06 17:03:00,81.3,72.2,29.65,SSW,197,0.0,0.0,74,0.12,,SKC,1.30,VWS V13.01,2013-10-06 22:03:00,
2013-10-06 17:08:00,81.3,71.4,29.65,SSW,197,0.0,0.0,72,0.00,,SKC,1.30,VWS V13.01,2013-10-06 22:08:00,
2013-10-06 17:13:00,81.0,70.3,29.65,SSW,197,0.0,0.0,70,0.00,,SKC,1.30,VWS V13.01,2013-10-06 22:13:00,
2013-10-06 17:18:00,81.0,71.9,29.65,SSW,197,0.0,0.0,74,0.00,,SKC,1.30,VWS V13.01,2013-10-06 22:18:00,
2013-10-06 17:23:00,81.0,71.9,29.65,SSW,197,0.0,0.0,74,0.00,,SKC,1.30,VWS V13.01,2013-10-06 22:23:00,
2013-10-06 17:28:00,80.6,72.3,29.65,North,353,0.0,0.0,76,0.00,,SKC,1.30,VWS V13.01,2013-10-06 22:28:00,
2013-10-06 17:33:00,80.6,72.3,29.65,NNE,12,0.0,0.0,76,0.00,,SKC,1.30,VWS V13.01,2013-10-06 22:33:00,
2013-10-06 17:38:00,80.2,70.4,29.65,North,357,0.0,4.9,72,0.00,,SKC,1.30,VWS V13.01,2013-10-06 22:38:00,
2013-10-06 17:43:00,80.1,71.0,29.65,North,357,0.0,0.0,74,0.00,,SKC,1.30,VWS V13.01,2013-10-06 22:43:00,
2013-10-06 17:48:00,80.1,71.0,29.65,North,8,0.0,0.0,74,0.00,,SKC,1.30,VWS V13.01,2013-10-06 22:48:00,
2013-10-06 17:53:00,79.9,70.9,29.68,North,8,0.0,0.0,74,0.00,,SKC,1.30,VWS V13.01,2013-10-06 22:53:00,
2013-10-06 17:58:00,79.7,70.7,29.68,North,8,0.0,0.0,74,0.00,,SKC,1.30,VWS V13.01,2013-10-06 22:58:00,
2013-10-06 18:03:00,79.3,67.9,29.68,NNW,346,2.7,2.7,68,0.00,,SKC,1.30,VWS V13.01,2013-10-06 23:03:00,
2013-10-06 18:08:00,78.8,66.5,29.68,ENE,75,0.0,2.2,66,0.00,,SKC,1.30,VWS V13.01,2013-10-06 23:08:00,
2013-10-06 18:13:00,78.3,66.0,29.68,NW,308,0.0,0.0,66,0.00,,SKC,1.30,VWS V13.01,2013-10-06 23:13:00,
2013-10-06 18:18:00,77.7,65.5,29.68,NNE,12,0.0,0.0,66,0.00,,SKC,1.30,VWS V13.01,2013-10-06 23:18:00,
2013-10-06 18:23:00,77.4,65.1,29.68,North,358,3.1,3.1,66,0.00,,SKC,1.30,VWS V13.01,2013-10-06 23:23:00,
2013-10-06 18:27:00,77.0,65.6,29.68,NNW,332,3.1,3.1,68,0.00,,SKC,1.30,VWS V13.01,2013-10-06 23:27:00,
2013-10-06 18:32:00,76.6,66.1,29.68,North,358,2.7,2.7,70,0.00,,SKC,1.30,VWS V13.01,2013-10-06 23:32:00,
2013-10-06 18:37:00,76.3,65.8,29.68,NNW,328,0.0,0.0,70,0.00,,SKC,1.30,VWS V13.01,2013-10-06 23:37:00,
2013-10-06 18:42:00,75.9,65.4,29.68,North,359,0.0,2.7,70,0.00,,SKC,1.30,VWS V13.01,2013-10-06 23:42:00,
2013-10-06 18:47:00,75.4,64.9,29.68,NNW,328,4.0,4.5,70,0.00,,SKC,1.30,VWS V13.01,2013-10-06 23:47:00,
2013-10-06 18:52:00,74.8,64.4,29.68,North,6,4.9,6.3,70,0.00,,SKC,1.30,VWS V13.01,2013-10-06 23:52:00,
2013-10-06 18:57:00,74.5,63.2,29.68,North,357,0.0,3.6,68,0.00,,SKC,1.30,VWS V13.01,2013-10-06 23:57:00,
2013-10-06 19:02:00,73.8,62.5,29.68,NE,53,3.1,3.6,68,0.00,,SKC,1.30,VWS V13.01,2013-10-07 00:02:00,
2013-10-06 19:07:00,73.2,62.9,29.71,North,6,4.0,4.0,70,0.00,,SKC,1.30,VWS V13.01,2013-10-07 00:07:00,
2013-10-06 19:12:00,72.9,62.5,29.71,NNE,19,5.4,5.4,70,0.00,,SKC,1.30,VWS V13.01,2013-10-07 00:12:00,
2013-10-06 19:17:00,72.3,62.0,29.71,NNW,345,5.4,5.4,70,0.00,,SKC,1.30,VWS V13.01,2013-10-07 00:17:00,
2013-10-06 19:22:00,72.0,61.7,29.71,NNW,330,4.9,4.9,70,0.00,,SKC,1.30,VWS V13.01,2013-10-07 00:22:00,
2013-10-06 19:27:00,71.8,62.3,29.71,ENE,75,5.4,5.4,72,0.00,,SKC,1.30,VWS V13.01,2013-10-07 00:27:00,
2013-10-06 19:32:00,71.6,62.9,29.71,ENE,78,2.2,5.4,74,0.00,,SKC,1.30,VWS V13.01,2013-10-07 00:32:00,
2013-10-06 19:37:00,71.6,62.9,29.71,SW,233,3.1,6.3,74,0.00,,SKC,1.30,VWS V13.01,2013-10-07 00:37:00,
2013-10-06 19:42:00,71.4,63.5,29.71,ENE,60,8.3,12.3,76,0.00,,SKC,1.30,VWS V13.01,2013-10-07 00:42:00,
2013-10-06 19:47:00,71.2,63.3,29.71,WSW,247,4.9,5.8,76,0.00,,SKC,1.30,VWS V13.01,2013-10-07 00:47:00,
2013-10-06 19:52:00,71.1,63.9,29.71,West,280,5.8,5.8,78,0.00,,SKC,1.30,VWS V13.01,2013-10-07 00:52:00,
2013-10-06 19:57:00,70.9,63.7,29.71,NE,42,3.6,7.2,78,0.00,,SKC,1.30,VWS V13.01,2013-10-07 00:57:00,
2013-10-06 20:02:00,71.1,63.9,29.71,NW,306,4.0,4.0,78,0.00,,SKC,1.30,VWS V13.01,2013-10-07 01:02:00,
2013-10-06 20:07:00,70.9,63.0,29.71,NW,322,2.2,2.2,76,0.00,,SKC,1.30,VWS V13.01,2013-10-07 01:07:00,
2013-10-06 20:12:00,70.9,63.0,29.71,WNW,302,6.3,6.3,76,0.00,,SKC,1.30,VWS V13.01,2013-10-07 01:12:00,
2013-10-06 20:17:00,70.7,62.0,29.71,NNW,338,2.7,5.4,74,0.00,,SKC,1.30,VWS V13.01,2013-10-07 01:17:00,
2013-10-06 20:22:00,70.5,62.6,29.74,WNW,301,4.0,4.0,76,0.00,,SKC,1.30,VWS V13.01,2013-10-07 01:22:00,
2013-10-06 20:27:00,70.5,62.6,29.74,NNE,24,3.1,7.6,76,0.00,,SKC,1.30,VWS V13.01,2013-10-07 01:27:00,
2013-10-06 20:32:00,70.5,62.6,29.74,ENE,75,3.6,3.6,76,0.00,,SKC,1.30,VWS V13.01,2013-10-07 01:32:00,
2013-10-06 20:37:00,70.5,61.8,29.74,North,354,3.6,6.3,74,0.00,,SKC,1.30,VWS V13.01,2013-10-07 01:37:00,
2013-10-06 20:42:00,70.3,60.9,29.74,East,92,2.7,7.6,72,0.00,,SKC,1.30,VWS V13.01,2013-10-07 01:42:00,
2013-10-06 20:47:00,70.2,60.7,29.74,NNE,15,0.0,0.0,72,0.00,,SKC,1.30,VWS V13.01,2013-10-07 01:47:00,
2013-10-06 20:52:00,70.2,60.7,29.74,NW,315,3.1,5.8,72,0.00,,SKC,1.30,VWS V13.01,2013-10-07 01:52:00,
2013-10-06 20:57:00,70.0,59.8,29.74,NW,317,2.7,8.3,70,0.00,,SKC,1.30,VWS V13.01,2013-10-07 01:57:00,
2013-10-06 21:02:00,70.0,60.5,29.74,NNE,32,8.3,8.3,72,0.00,,SKC,1.30,VWS V13.01,2013-10-07 02:02:00,
2013-10-06 21:07:00,69.8,59.6,29.74,East,91,0.0,0.0,70,0.00,,SKC,1.30,VWS V13.01,2013-10-07 02:07:00,
2013-10-06 21:12:00,69.8,60.4,29.74,NNW,333,5.4,5.4,72,0.00,,SKC,1.30,VWS V13.01,2013-10-07 02:12:00,
2013-10-06 21:17:00,69.6,60.2,29.74,North,4,5.8,5.8,72,0.00,,SKC,1.30,VWS V13.01,2013-10-07 02:17:00,
2013-10-06 21:22:00,69.6,60.2,29.77,WNW,290,2.2,5.8,72,0.00,,SKC,1.30,VWS V13.01,2013-10-07 02:22:00,
2013-10-06 21:27:00,69.8,59.6,29.77,NNE,29,3.6,5.4,70,0.00,,SKC,1.30,VWS V13.01,2013-10-07 02:27:00,
2013-10-06 21:32:00,69.8,59.6,29.77,NNE,18,3.1,5.8,70,0.00,,SKC,1.30,VWS V13.01,2013-10-07 02:32:00,
2013-10-06 21:37:00,69.6,58.6,29.77,NNE,13,4.0,6.3,68,0.00,,SKC,1.30,VWS V13.01,2013-10-07 02:37:00,
2013-10-06 21:42:00,69.6,57.8,29.77,WNW,298,5.8,7.6,66,0.00,,SKC,1.30,VWS V13.01,2013-10-07 02:42:00,
2013-10-06 21:47:00,69.4,57.6,29.77,North,6,3.6,4.0,66,0.00,,SKC,1.30,VWS V13.01,2013-10-07 02:47:00,
2013-10-06 21:52:00,69.3,56.6,29.77,North,352,6.3,6.3,64,0.00,,SKC,1.30,VWS V13.01,2013-10-07 02:52:00,
2013-10-06 21:57:00,69.3,57.4,29.77,NNE,27,0.0,3.1,66,0.00,,SKC,1.30,VWS V13.01,2013-10-07 02:57:00,
2013-10-06 22:02:00,68.9,56.2,29.77,East,83,3.1,6.3,64,0.00,,SKC,1.30,VWS V13.01,2013-10-07 03:02:00,
2013-10-06 22:07:00,68.7,55.2,29.77,North,7,5.8,5.8,62,0.00,,SKC,1.30,VWS V13.01,2013-10-07 03:07:00,
2013-10-06 22:12:00,68.5,52.2,29.77,NNE,20,10.1,10.1,56,0.00,,SKC,1.30,VWS V13.01,2013-10-07 03:12:00,
2013-10-06 22:17:00,68.5,51.2,29.77,NNE,20,7.2,7.2,54,0.00,,SKC,1.30,VWS V13.01,2013-10-07 03:17:00,
2013-10-06 22:22:00,68.5,50.2,29.77,North,3,3.6,5.8,52,0.00,,SKC,1.30,VWS V13.01,2013-10-07 03:22:00,
2013-10-06 22:27:00,68.4,47.9,29.77,NNW,333,7.6,10.5,48,0.00,,SKC,1.30,VWS V13.01,2013-10-07 03:27:00,
2013-10-06 22:32:00,68.4,47.9,29.77,NE,37,6.3,8.1,48,0.00,,SKC,1.30,VWS V13.01,2013-10-07 03:32:00,
2013-10-06 22:37:00,68.2,47.8,29.77,NW,324,3.1,5.8,48,0.00,,SKC,1.30,VWS V13.01,2013-10-07 03:37:00,
2013-10-06 22:42:00,68.2,47.8,29.77,NNE,22,4.0,4.0,48,0.00,,SKC,1.30,VWS V13.01,2013-10-07 03:42:00,
2013-10-06 22:47:00,68.0,46.5,29.77,ENE,71,4.0,7.6,46,0.00,,SKC,1.30,VWS V13.01,2013-10-07 03:47:00,
2013-10-06 22:52:00,68.0,47.6,29.77,NE,41,3.1,3.6,48,0.00,,SKC,1.30,VWS V13.01,2013-10-07 03:52:00,
2013-10-06 22:57:00,68.0,47.6,29.77,NE,41,9.2,9.2,48,0.00,,SKC,1.30,VWS V13.01,2013-10-07 03:57:00,
2013-10-06 23:01:00,68.0,46.5,29.77,NNE,12,3.1,4.0,46,0.00,,SKC,1.30,VWS V13.01,2013-10-07 04:01:00,
2013-10-06 23:06:00,68.0,46.5,29.77,NW,326,2.7,2.7,46,0.00,,SKC,1.30,VWS V13.01,2013-10-07 04:06:00,
2013-10-06 23:11:00,67.8,47.4,29.77,NE,34,3.6,8.1,48,0.00,,SKC,1.30,VWS V13.01,2013-10-07 04:11:00,
2013-10-06 23:16:00,67.8,47.4,29.77,ESE,113,0.0,7.6,48,0.00,,SKC,1.30,VWS V13.01,2013-10-07 04:16:00,
2013-10-06 23:21:00,67.8,47.4,29.77,East,98,3.1,5.8,48,0.00,,SKC,1.30,VWS V13.01,2013-10-07 04:21:00,
2013-10-06 23:26:00,67.6,47.3,29.77,NE,50,7.6,7.6,48,0.00,,SKC,1.30,VWS V13.01,2013-10-07 04:26:00,
2013-10-06 23:31:00,67.8,47.4,29.77,NW,306,3.6,6.3,48,0.00,,SKC,1.30,VWS V13.01,2013-10-07 04:31:00,
2013-10-06 23:36:00,67.8,47.4,29.77,NE,48,5.8,10.5,48,0.00,,SKC,1.30,VWS V13.01,2013-10-07 04:36:00,
2013-10-06 23:41:00,67.8,47.4,29.77,NNW,342,4.0,5.4,48,0.00,,SKC,1.30,VWS V13.01,2013-10-07 04:41:00,
2013-10-06 23:46:00,67.8,47.4,29.77,NNW,339,2.7,4.0,48,0.00,,SKC,1.30,VWS V13.01,2013-10-07 04:46:00,
2013-10-06 23:51:00,67.8,47.4,29.77,NNE,28,4.0,8.1,48,0.00,,SKC,1.30,VWS V13.01,2013-10-07 04:51:00,
2013-10-06 23:56:00,67.6,47.3,29.77,NE,39,6.3,6.3,48,0.00,,SKC,1.30,VWS V13.01,2013-10-07 04:56:00,